,,Stat1,,Stat2,,Stat3,,Stat4,,Wind1,,Wind1,
time,status,PR1M_SUM,status,RH1M_AVG,status,SR1M_AVG,status,TA1M_AVG,status,W1dAve1m,status,W1sAve1m,
1999-11-09, 00:01:00,VALID,0,VALID,99.718,VALID,-0.0169808,VALID,18.6164,VALID,48,VALID,1.52586,
1999-11-09, 00:02:00,VALID,0,VALID,99.6836,VALID,0.0169808,VALID,18.6025,VALID,56,VALID,1.4541,
1999-11-09, 00:03:00,VALID,0,VALID,99.6989,VALID,0.0509425,VALID,18.609,VALID,90,VALID,2.04622,
1999-11-09, 00:04:00,VALID,0,VALID,99.6951,VALID,0.0509425,VALID,18.6189,VALID,89,VALID,1.96897,
1999-11-09, 00:05:00,VALID,0,VALID,99.6684,VALID,0.0169808,VALID,18.5961,VALID,173,VALID,0.934416,
1999-11-09, 00:06:00,VALID,0,VALID,99.7154,VALID,0.0849042,VALID,18.609,VALID,88,VALID,0.829297,
1999-11-09, 00:07:00,VALID,0,VALID,99.7141,VALID,0.0849042,VALID,18.609,VALID,96,VALID,2.07835,
1999-11-09, 00:08:00,VALID,0,VALID,99.7434,VALID,0.0679233,VALID,18.6088,VALID,98,VALID,1.87767,
1999-11-09, 00:09:00,VALID,0,VALID,99.7434,VALID,0.0679233,VALID,18.6058,VALID,78,VALID,1.41387,
1999-11-09, 00:10:01,VALID,0,VALID,99.7243,VALID,0.101885,VALID,18.5889,VALID,140,VALID,1.08894,
1999-11-09, 00:11:01,VALID,0,VALID,99.7472,VALID,0.0849042,VALID,18.5926,VALID,58,VALID,0.867839,
1999-11-09, 00:12:00,VALID,0,VALID,99.7726,VALID,0.0849042,VALID,18.6055,VALID,89,VALID,0.892887,
1999-11-09, 00:13:00,VALID,0,VALID,99.779,VALID,0.101885,VALID,18.5891,VALID,105,VALID,1.46563,
1999-11-09, 00:14:00,VALID,0,VALID,99.7688,VALID,0.101885,VALID,18.5963,VALID,70,VALID,0.72793,
1999-11-09, 00:15:00,VALID,0,VALID,99.765,VALID,0.0849042,VALID,18.5762,VALID,260,VALID,0.583059,
1999-11-09, 00:16:00,VALID,0,VALID,99.7497,VALID,0.0509425,VALID,18.567,VALID,299,VALID,0.858141,
1999-11-09, 00:17:00,VALID,0,VALID,99.7599,VALID,-0.0679233,VALID,18.5624,VALID,235,VALID,0.21136,
1999-11-09, 00:18:00,VALID,0,VALID,99.7561,VALID,-0.101885,VALID,18.5569,VALID,86,VALID,0.919727,
1999-11-09, 00:19:00,VALID,0,VALID,99.8133,VALID,-0.101885,VALID,18.5656,VALID,97,VALID,1.65144,
1999-11-09, 00:20:00,VALID,0,VALID,99.8235,VALID,-0.0849042,VALID,18.5691,VALID,94,VALID,1.91735,
1999-11-09, 00:21:00,VALID,0,VALID,99.7777,VALID,-0.101885,VALID,18.5566,VALID,75,VALID,1.1416,
1999-11-09, 00:22:01,VALID,0,VALID,99.7803,VALID,-0.101885,VALID,18.5502,VALID,28,VALID,0.582899,
1999-11-09, 00:23:00,VALID,0,VALID,99.8032,VALID,-0.118866,VALID,18.5504,VALID,258,VALID,0.672081,
1999-11-09, 00:24:00,VALID,0,VALID,99.7955,VALID,-0.0849042,VALID,18.5534,VALID,190,VALID,0.436061,
1999-11-09, 00:25:00,VALID,0,VALID,99.8362,VALID,-0.101885,VALID,18.5666,VALID,84,VALID,1.6618,
1999-11-09, 00:26:00,VALID,0,VALID,99.8464,VALID,-0.101885,VALID,18.5698,VALID,101,VALID,1.30035,
1999-11-09, 00:27:00,VALID,0,VALID,99.8375,VALID,-0.101885,VALID,18.5698,VALID,83,VALID,1.3776,
1999-11-09, 00:28:00,VALID,0,VALID,99.8286,VALID,-0.118866,VALID,18.5802,VALID,115,VALID,0.842773,
1999-11-09, 00:29:00,VALID,0,VALID,99.8273,VALID,-0.101885,VALID,18.5636,VALID,276,VALID,0.962305,
1999-11-09, 00:30:00,VALID,0,VALID,99.8502,VALID,-0.101885,VALID,18.5668,VALID,134,VALID,1.12294,
1999-11-09, 00:31:01,VALID,0,VALID,99.868,VALID,-0.0849042,VALID,18.573,VALID,96,VALID,1.56291,
1999-11-09, 00:32:00,VALID,0,VALID,99.8833,VALID,0,VALID,18.5781,VALID,51,VALID,0.865709,
1999-11-09, 00:33:01,VALID,0,VALID,99.8731,VALID,0,VALID,18.5684,VALID,87,VALID,3.53555,
1999-11-09, 00:34:00,VALID,0,VALID,99.8833,VALID,0,VALID,18.5753,VALID,105,VALID,1.07893,
1999-11-09, 00:35:00,VALID,0,VALID,99.8655,VALID,-0.0339617,VALID,18.5686,VALID,94,VALID,2.11739,
1999-11-09, 00:36:00,VALID,0,VALID,99.8884,VALID,0,VALID,18.5783,VALID,86,VALID,2.20703,
1999-11-09, 00:37:00,VALID,0.2,VALID,99.84,VALID,0,VALID,18.5555,VALID,76,VALID,1.83789,
1999-11-09, 00:38:00,VALID,0,VALID,99.7192,VALID,0.0169808,VALID,18.5234,VALID,355,VALID,2.16406,
1999-11-09, 00:39:00,VALID,0,VALID,99.7561,VALID,-0.0169808,VALID,18.5331,VALID,80,VALID,1.97821,
1999-11-09, 00:40:00,VALID,0,VALID,99.7243,VALID,-0.0169808,VALID,18.5365,VALID,45,VALID,1.37562,
1999-11-09, 00:41:00,VALID,0,VALID,99.718,VALID,0,VALID,18.5365,VALID,98,VALID,1.20334,
1999-11-09, 00:42:00,VALID,0,VALID,99.7294,VALID,-0.0169808,VALID,18.5432,VALID,60,VALID,0.778863,
1999-11-09, 00:43:01,VALID,0,VALID,99.7218,VALID,-0.0169808,VALID,18.5331,VALID,83,VALID,0.496094,
1999-11-09, 00:44:01,VALID,0,VALID,99.718,VALID,-0.0339617,VALID,18.5462,VALID,51,VALID,0.598047,
1999-11-09, 00:45:00,VALID,0,VALID,99.7218,VALID,0,VALID,18.5435,VALID,97,VALID,1.90543,
1999-11-09, 00:46:00,VALID,0,VALID,99.7294,VALID,-0.0169808,VALID,18.5268,VALID,44,VALID,1.25308,
1999-11-09, 00:47:00,VALID,0,VALID,99.751,VALID,-0.0509425,VALID,18.5139,VALID,90,VALID,1.11529,
1999-11-09, 00:48:00,VALID,0,VALID,99.7803,VALID,0,VALID,18.5234,VALID,32,VALID,1.21699,
1999-11-09, 00:49:00,VALID,0,VALID,99.7536,VALID,0.0169808,VALID,18.507,VALID,89,VALID,0.941106,
1999-11-09, 00:50:00,VALID,0,VALID,99.7765,VALID,0,VALID,18.4975,VALID,94,VALID,2.02118,
1999-11-09, 00:51:00,VALID,0,VALID,99.8337,VALID,0,VALID,18.5204,VALID,81,VALID,1.87891,
1999-11-09, 00:52:00,VALID,0,VALID,99.8388,VALID,-0.0339617,VALID,18.5273,VALID,86,VALID,1.75911,
1999-11-09, 00:53:00,VALID,0,VALID,99.826,VALID,-0.0509425,VALID,18.5137,VALID,90,VALID,1.70868,
1999-11-09, 00:54:01,VALID,0,VALID,99.8222,VALID,-0.0169808,VALID,18.5074,VALID,31,VALID,0.472451,
1999-11-09, 00:55:00,VALID,0,VALID,99.8311,VALID,-0.0169808,VALID,18.5007,VALID,70,VALID,1.30839,
1999-11-09, 00:56:00,VALID,0,VALID,99.8133,VALID,0,VALID,18.4945,VALID,98,VALID,2.30794,
1999-11-09, 00:57:00,VALID,0,VALID,99.8235,VALID,-0.0169808,VALID,18.4878,VALID,130,VALID,1.13021,
1999-11-09, 00:58:00,VALID,0,VALID,99.8184,VALID,0,VALID,18.498,VALID,122,VALID,1.05039,
1999-11-09, 00:59:00,VALID,0,VALID,99.8171,VALID,0,VALID,18.4878,VALID,53,VALID,1.41504,
1999-11-09, 01:00:00,VALID,0,VALID,99.7892,VALID,-0.0169808,VALID,18.4784,VALID,255,VALID,1.04914,
1999-11-09, 01:01:00,VALID,0,VALID,99.7752,VALID,-0.0509425,VALID,18.4687,VALID,149,VALID,1.06476,
1999-11-09, 01:02:00,VALID,0,VALID,99.7815,VALID,-0.0169808,VALID,18.4721,VALID,50,VALID,1.67356,
1999-11-09, 01:03:00,VALID,0,VALID,99.807,VALID,0,VALID,18.4682,VALID,247,VALID,0.407031,
1999-11-09, 01:04:00,VALID,0,VALID,99.8032,VALID,-0.0169808,VALID,18.4846,VALID,88,VALID,1.19792,
1999-11-09, 01:05:00,VALID,0,VALID,99.793,VALID,-0.0169808,VALID,18.4786,VALID,69,VALID,1.1178,
1999-11-09, 01:06:00,VALID,0,VALID,99.7663,VALID,0,VALID,18.4783,VALID,216,VALID,0.910742,
1999-11-09, 01:07:00,VALID,0,VALID,99.8006,VALID,0,VALID,18.4876,VALID,158,VALID,1.53407,
1999-11-09, 01:08:00,VALID,0,VALID,99.7892,VALID,-0.0169808,VALID,18.4846,VALID,253,VALID,0.484992,
1999-11-09, 01:09:00,VALID,0,VALID,99.7955,VALID,0.0169808,VALID,18.4878,VALID,190,VALID,0.679688,
1999-11-09, 01:10:00,VALID,0,VALID,99.8095,VALID,0,VALID,18.5007,VALID,63,VALID,0.61801,
1999-11-09, 01:11:00,VALID,0,VALID,99.7828,VALID,0,VALID,18.5139,VALID,270,VALID,0.604601,
1999-11-09, 01:12:00,VALID,0,VALID,99.7828,VALID,0.0339617,VALID,18.5005,VALID,235,VALID,0.33355,
1999-11-09, 01:13:00,VALID,0,VALID,99.8006,VALID,0.0169808,VALID,18.5201,VALID,264,VALID,0.0933594,
1999-11-09, 01:14:00,VALID,0,VALID,99.8171,VALID,0.0169808,VALID,18.5298,VALID,155,VALID,0.642773,
1999-11-09, 01:15:00,VALID,0,VALID,99.821,VALID,0,VALID,18.5395,VALID,50,VALID,0.624589,
1999-11-09, 01:16:01,VALID,0,VALID,99.7993,VALID,0.0169808,VALID,18.5264,VALID,85,VALID,0.997533,
1999-11-09, 01:17:00,VALID,0,VALID,99.8146,VALID,0,VALID,18.5259,VALID,93,VALID,1.16871,
1999-11-09, 01:18:00,VALID,0,VALID,99.8299,VALID,0.0169808,VALID,18.5289,VALID,119,VALID,0.910352,
1999-11-09, 01:19:00,VALID,0,VALID,99.826,VALID,0.0169808,VALID,18.5418,VALID,187,VALID,0.856571,
1999-11-09, 01:20:00,VALID,0,VALID,99.8146,VALID,0.0169808,VALID,18.5393,VALID,109,VALID,0.637952,
1999-11-09, 01:21:00,VALID,0,VALID,99.8324,VALID,0,VALID,18.5453,VALID,29,VALID,0.447852,
1999-11-09, 01:22:00,VALID,0,VALID,99.8197,VALID,0,VALID,18.5585,VALID,60,VALID,1.09158,
1999-11-09, 01:23:00,VALID,0,VALID,99.8413,VALID,0,VALID,18.5615,VALID,96,VALID,2.05777,
1999-11-09, 01:24:00,VALID,0,VALID,99.8438,VALID,0.0169808,VALID,18.5834,VALID,225,VALID,1.26665,
1999-11-09, 01:25:00,VALID,0,VALID,99.8324,VALID,0.0679233,VALID,18.5742,VALID,328,VALID,0.864104,
1999-11-09, 01:26:01,VALID,0,VALID,99.8337,VALID,0.0169808,VALID,18.5739,VALID,95,VALID,1.34006,
1999-11-09, 01:27:00,VALID,0,VALID,99.8477,VALID,0,VALID,18.5908,VALID,90,VALID,1.53689,
1999-11-09, 01:28:00,VALID,0,VALID,99.8566,VALID,0,VALID,18.5903,VALID,274,VALID,0.725977,
1999-11-09, 01:29:00,VALID,0,VALID,99.854,VALID,0.0339617,VALID,18.5968,VALID,100,VALID,0.779883,
1999-11-09, 01:30:00,VALID,0,VALID,99.8718,VALID,0.0169808,VALID,18.6095,VALID,108,VALID,0.676192,
1999-11-09, 01:31:00,VALID,0,VALID,99.8807,VALID,0.0339617,VALID,18.6328,VALID,317,VALID,0.35588,
1999-11-09, 01:32:00,VALID,0,VALID,99.8426,VALID,-0.0509425,VALID,18.6178,VALID,265,VALID,1.04835,
1999-11-09, 01:33:00,VALID,0,VALID,99.8362,VALID,-0.0339617,VALID,18.598,VALID,350,VALID,0.76875,
1999-11-09, 01:34:00,VALID,0,VALID,99.8642,VALID,-0.0679233,VALID,18.6077,VALID,69,VALID,0.88722,
1999-11-09, 01:35:00,VALID,0,VALID,99.868,VALID,-0.0509425,VALID,18.6143,VALID,323,VALID,0.543174,
1999-11-09, 01:36:00,VALID,0,VALID,99.8426,VALID,-0.0679233,VALID,18.5982,VALID,235,VALID,0.354297,
1999-11-09, 01:37:00,VALID,0,VALID,99.8553,VALID,-0.0679233,VALID,18.5977,VALID,179,VALID,0.465061,
1999-11-09, 01:38:00,VALID,0,VALID,99.8616,VALID,-0.0679233,VALID,18.6047,VALID,115,VALID,0.7794,
1999-11-09, 01:39:00,VALID,0,VALID,99.8795,VALID,-0.0679233,VALID,18.621,VALID,136,VALID,0.0711349,
1999-11-09, 01:40:00,VALID,0,VALID,99.8807,VALID,-0.101885,VALID,18.6203,VALID,132,VALID,0.386308,
1999-11-09, 01:41:00,VALID,0,VALID,99.8934,VALID,-0.0509425,VALID,18.637,VALID,136,VALID,0.303168,
1999-11-09, 01:42:00,VALID,0,VALID,99.8909,VALID,-0.0509425,VALID,18.637,VALID,71,VALID,0.684679,
1999-11-09, 01:43:00,VALID,0,VALID,99.8769,VALID,-0.0679233,VALID,18.627,VALID,117,VALID,0.566797,
1999-11-09, 01:44:00,VALID,0,VALID,99.8655,VALID,-0.0509425,VALID,18.6307,VALID,135,VALID,0.70625,
1999-11-09, 01:45:00,VALID,0,VALID,99.8795,VALID,-0.0679233,VALID,18.6367,VALID,168,VALID,0.375822,
1999-11-09, 01:46:00,VALID,0,VALID,99.8871,VALID,0,VALID,18.6522,VALID,188,VALID,0.496299,
1999-11-09, 01:47:00,VALID,0,VALID,99.8807,VALID,0.0339617,VALID,18.6612,VALID,151,VALID,0.800042,
1999-11-09, 01:48:00,VALID,0,VALID,99.8845,VALID,0.0509425,VALID,18.6808,VALID,130,VALID,0.741016,
1999-11-09, 01:49:00,VALID,0,VALID,99.8655,VALID,0.0169808,VALID,18.6739,VALID,291,VALID,0.498397,
1999-11-09, 01:50:00,VALID,0,VALID,99.8591,VALID,0.0849042,VALID,18.6838,VALID,168,VALID,0.561061,
1999-11-09, 01:51:00,VALID,0,VALID,99.8502,VALID,0,VALID,18.6838,VALID,117,VALID,0.761328,
1999-11-09, 01:52:00,VALID,0,VALID,99.8553,VALID,0.0339617,VALID,18.7,VALID,82,VALID,0.801432,
1999-11-09, 01:53:00,VALID,0,VALID,99.8349,VALID,0.0339617,VALID,18.6968,VALID,131,VALID,0.430304,
1999-11-09, 01:54:00,VALID,0,VALID,99.8388,VALID,0.0679233,VALID,18.7032,VALID,89,VALID,0.523232,
1999-11-09, 01:55:00,VALID,0,VALID,99.8235,VALID,0.101885,VALID,18.703,VALID,338,VALID,1.07771,
1999-11-09, 01:56:00,VALID,0,VALID,99.8235,VALID,0.101885,VALID,18.703,VALID,88,VALID,0.839844,
1999-11-09, 01:57:00,VALID,0,VALID,99.8375,VALID,0.0679233,VALID,18.7159,VALID,164,VALID,0.274306,
1999-11-09, 01:58:00,VALID,0,VALID,99.8235,VALID,0.0509425,VALID,18.7094,VALID,107,VALID,0,
1999-11-09, 01:59:01,VALID,0,VALID,99.8184,VALID,0.0509425,VALID,18.7161,VALID,40,VALID,0.995508,
1999-11-09, 02:00:00,VALID,0,VALID,99.7981,VALID,0.0679233,VALID,18.7067,VALID,338,VALID,1.06538,
1999-11-09, 02:01:00,VALID,0,VALID,99.807,VALID,0,VALID,18.6963,VALID,21,VALID,1.48828,
1999-11-09, 02:02:00,VALID,0,VALID,99.8082,VALID,-0.0679233,VALID,18.7208,VALID,98,VALID,1.29054,
1999-11-09, 02:03:00,VALID,0,VALID,99.8515,VALID,-0.0679233,VALID,18.737,VALID,121,VALID,0.541406,
1999-11-09, 02:04:00,VALID,0,VALID,99.8337,VALID,-0.0169808,VALID,18.7529,VALID,97,VALID,0.973758,
1999-11-09, 02:05:00,VALID,0,VALID,99.84,VALID,-0.0849042,VALID,18.7601,VALID,81,VALID,0.369655,
1999-11-09, 02:06:00,VALID,0,VALID,99.8337,VALID,-0.0509425,VALID,18.7531,VALID,206,VALID,0.398242,
1999-11-09, 02:07:00,VALID,0,VALID,99.8197,VALID,-0.0509425,VALID,18.7501,VALID,269,VALID,0.763455,
1999-11-09, 02:08:00,VALID,0,VALID,99.807,VALID,-0.0849042,VALID,18.7404,VALID,349,VALID,0.471012,
1999-11-09, 02:09:00,VALID,0,VALID,99.8451,VALID,-0.0339617,VALID,18.7496,VALID,96,VALID,0.988076,
1999-11-09, 02:10:01,VALID,0,VALID,99.8566,VALID,-0.0509425,VALID,18.7464,VALID,320,VALID,0.654811,
1999-11-09, 02:11:01,VALID,0.2,VALID,99.8616,VALID,0,VALID,18.7432,VALID,70,VALID,1.12826,
1999-11-09, 02:12:00,VALID,0,VALID,99.8578,VALID,-0.0339617,VALID,18.7429,VALID,261,VALID,1.03668,
1999-11-09, 02:13:00,VALID,0,VALID,99.84,VALID,-0.0169808,VALID,18.724,VALID,330,VALID,0.923437,
1999-11-09, 02:14:00,VALID,0,VALID,99.84,VALID,-0.0339617,VALID,18.7141,VALID,75,VALID,0.956641,
1999-11-09, 02:15:00,VALID,0,VALID,99.8553,VALID,-0.0509425,VALID,18.7208,VALID,143,VALID,0.606086,
1999-11-09, 02:16:00,VALID,0,VALID,99.8756,VALID,-0.0169808,VALID,18.7141,VALID,206,VALID,0.4706,
1999-11-09, 02:17:00,VALID,0,VALID,99.8756,VALID,-0.0169808,VALID,18.7141,VALID,328,VALID,1.25063,
1999-11-09, 02:18:00,VALID,0,VALID,99.8604,VALID,0,VALID,18.694,VALID,360,VALID,2.51641,
1999-11-09, 02:19:00,VALID,0,VALID,99.8604,VALID,-0.0169808,VALID,18.6977,VALID,335,VALID,1.90565,
1999-11-09, 02:20:00,VALID,0,VALID,99.8871,VALID,-0.0339617,VALID,18.7044,VALID,271,VALID,0.767887,
1999-11-09, 02:21:00,VALID,0,VALID,99.8947,VALID,-0.0509425,VALID,18.7111,VALID,328,VALID,0.963477,
1999-11-09, 02:22:00,VALID,0,VALID,99.9011,VALID,-0.0509425,VALID,18.7109,VALID,353,VALID,0.854818,
1999-11-09, 02:23:00,VALID,0,VALID,99.9341,VALID,-0.0339617,VALID,18.7203,VALID,149,VALID,0.881168,
1999-11-09, 02:24:00,VALID,0,VALID,99.957,VALID,-0.0169808,VALID,18.7429,VALID,81,VALID,0.64926,
1999-11-09, 02:25:00,VALID,0,VALID,99.9138,VALID,0,VALID,18.7263,VALID,170,VALID,0.937294,
1999-11-09, 02:26:00,VALID,0,VALID,99.9354,VALID,0,VALID,18.74,VALID,196,VALID,0.506293,
1999-11-09, 02:27:00,VALID,0,VALID,99.9265,VALID,0,VALID,18.7328,VALID,79,VALID,0.902995,
1999-11-09, 02:28:00,VALID,0,VALID,99.9379,VALID,-0.0169808,VALID,18.7365,VALID,132,VALID,0.926953,
1999-11-09, 02:29:00,VALID,0,VALID,99.9596,VALID,-0.0169808,VALID,18.7494,VALID,346,VALID,0.998438,
1999-11-09, 02:30:00,VALID,0,VALID,99.9379,VALID,0,VALID,18.7265,VALID,123,VALID,1.30613,
1999-11-09, 02:31:00,VALID,0,VALID,99.9468,VALID,-0.0169808,VALID,18.7303,VALID,83,VALID,1.61266,
1999-11-09, 02:32:00,VALID,0,VALID,99.9532,VALID,-0.0169808,VALID,18.7134,VALID,110,VALID,0.962204,
1999-11-09, 02:33:00,VALID,0,VALID,99.9418,VALID,-0.0169808,VALID,18.7143,VALID,105,VALID,0.943164,
1999-11-09, 02:34:00,VALID,0,VALID,99.9697,VALID,-0.0169808,VALID,18.7106,VALID,97,VALID,1.32272,
1999-11-09, 02:35:00,VALID,0,VALID,99.9812,VALID,-0.0169808,VALID,18.7139,VALID,88,VALID,1.41488,
1999-11-09, 02:36:00,VALID,0,VALID,99.9418,VALID,0,VALID,18.7042,VALID,89,VALID,1.00098,
1999-11-09, 02:37:00,VALID,0,VALID,99.9621,VALID,-0.0339617,VALID,18.6977,VALID,82,VALID,1.09462,
1999-11-09, 02:38:00,VALID,0,VALID,99.9354,VALID,-0.0849042,VALID,18.6915,VALID,292,VALID,0.961349,
1999-11-09, 02:39:00,VALID,0,VALID,99.9379,VALID,-0.0679233,VALID,18.6755,VALID,157,VALID,1.03002,
1999-11-09, 02:40:00,VALID,0,VALID,99.9341,VALID,-0.0849042,VALID,18.6529,VALID,96,VALID,1.56764,
1999-11-09, 02:41:00,VALID,0,VALID,99.9608,VALID,-0.0509425,VALID,18.6721,VALID,106,VALID,1.03602,
1999-11-09, 02:42:00,VALID,0,VALID,99.9596,VALID,-0.0169808,VALID,18.6887,VALID,118,VALID,0.636285,
1999-11-09, 02:43:01,VALID,0,VALID,99.9672,VALID,-0.0169808,VALID,18.6818,VALID,182,VALID,0.398828,
1999-11-09, 02:44:01,VALID,0,VALID,99.9608,VALID,-0.0169808,VALID,18.6818,VALID,131,VALID,0.954687,
1999-11-09, 02:45:00,VALID,0,VALID,99.9647,VALID,-0.0849042,VALID,18.6751,VALID,111,VALID,0.818668,
1999-11-09, 02:46:00,VALID,0,VALID,99.9685,VALID,-0.0849042,VALID,18.682,VALID,124,VALID,0.922903,
1999-11-09, 02:47:00,VALID,0,VALID,99.9634,VALID,-0.0509425,VALID,18.6751,VALID,249,VALID,0.675253,
1999-11-09, 02:48:00,VALID,0,VALID,99.9507,VALID,-0.0339617,VALID,18.6651,VALID,173,VALID,0.219336,
1999-11-09, 02:49:00,VALID,0,VALID,99.9858,VALID,-0.0169808,VALID,18.6818,VALID,98,VALID,0.995393,
1999-11-09, 02:50:00,VALID,0,VALID,99.9825,VALID,-0.0509425,VALID,18.6748,VALID,318,VALID,0.585938,
1999-11-09, 02:51:00,VALID,0,VALID,99.9901,VALID,-0.0339617,VALID,18.6589,VALID,212,VALID,0.389648,
1999-11-09, 02:52:00,VALID,0,VALID,99.9875,VALID,-0.0169808,VALID,18.6621,VALID,110,VALID,0.602214,
1999-11-09, 02:53:00,VALID,0,VALID,99.9941,VALID,-0.0169808,VALID,18.6686,VALID,109,VALID,0.836965,
1999-11-09, 02:54:01,VALID,0,VALID,99.9863,VALID,-0.0339617,VALID,18.6624,VALID,100,VALID,0.547903,
1999-11-09, 02:55:01,VALID,0,VALID,99.9919,VALID,-0.0509425,VALID,18.6591,VALID,94,VALID,1.03557,
1999-11-09, 02:56:00,VALID,0,VALID,99.9672,VALID,-0.0339617,VALID,18.643,VALID,69,VALID,1.45443,
1999-11-09, 02:57:00,VALID,0,VALID,99.9723,VALID,-0.0509425,VALID,18.6365,VALID,93,VALID,1.91688,
1999-11-09, 02:58:00,VALID,0,VALID,99.9557,VALID,-0.0339617,VALID,18.6494,VALID,77,VALID,0.944141,
1999-11-09, 02:59:00,VALID,0,VALID,99.9774,VALID,-0.0339617,VALID,18.6591,VALID,77,VALID,1.00684,
1999-11-09, 03:00:00,VALID,0,VALID,99.9825,VALID,-0.0169808,VALID,18.6688,VALID,24,VALID,0.449219,
1999-11-09, 03:01:00,VALID,0,VALID,99.9748,VALID,-0.0339617,VALID,18.6557,VALID,154,VALID,0.563117,
1999-11-09, 03:02:00,VALID,0,VALID,99.986,VALID,-0.0169808,VALID,18.6587,VALID,75,VALID,0.8731,
1999-11-09, 03:03:00,VALID,0,VALID,99.9657,VALID,-0.0509425,VALID,18.6522,VALID,341,VALID,0.820703,
1999-11-09, 03:04:00,VALID,0,VALID,99.9634,VALID,-0.0169808,VALID,18.6522,VALID,108,VALID,0.892628,
1999-11-09, 03:05:00,VALID,0,VALID,99.9672,VALID,0,VALID,18.636,VALID,82,VALID,0.746916,
1999-11-09, 03:06:01,VALID,0,VALID,99.9608,VALID,0,VALID,18.6432,VALID,360,VALID,0.177344,
1999-11-09, 03:07:00,VALID,0,VALID,99.9672,VALID,0.0169808,VALID,18.6494,VALID,44,VALID,0.501953,
1999-11-09, 03:08:00,VALID,0,VALID,99.9672,VALID,-0.0169808,VALID,18.6395,VALID,292,VALID,0.117188,
1999-11-09, 03:09:00,VALID,0,VALID,99.9634,VALID,-0.0169808,VALID,18.6427,VALID,230,VALID,0.482936,
1999-11-09, 03:10:00,VALID,0,VALID,99.9596,VALID,-0.0679233,VALID,18.6395,VALID,225,VALID,0.332442,
1999-11-09, 03:11:00,VALID,0,VALID,99.9583,VALID,0,VALID,18.6524,VALID,141,VALID,0.29796,
1999-11-09, 03:12:00,VALID,0,VALID,99.9583,VALID,-0.0509425,VALID,18.6397,VALID,328,VALID,0,
1999-11-09, 03:13:00,VALID,0,VALID,99.943,VALID,-0.0339617,VALID,18.6298,VALID,324,VALID,0.000976563,
1999-11-09, 03:14:00,VALID,0,VALID,99.9227,VALID,-0.0339617,VALID,18.6139,VALID,6,VALID,0.830469,
1999-11-09, 03:15:00,VALID,0,VALID,99.9354,VALID,-0.0169808,VALID,18.6139,VALID,289,VALID,0.610403,
1999-11-09, 03:16:01,VALID,0,VALID,99.9354,VALID,-0.0169808,VALID,18.6303,VALID,306,VALID,0.783923,
1999-11-09, 03:17:01,VALID,0,VALID,99.8934,VALID,0.0679233,VALID,18.6092,VALID,300,VALID,0.699747,
1999-11-09, 03:18:00,VALID,0,VALID,99.9023,VALID,0.0849042,VALID,18.6155,VALID,10,VALID,0.53457,
1999-11-09, 03:19:00,VALID,0,VALID,99.882,VALID,0.0679233,VALID,18.6192,VALID,46,VALID,0.653646,
1999-11-09, 03:20:00,VALID,0,VALID,99.8744,VALID,0.0849042,VALID,18.6256,VALID,321,VALID,0.627878,
1999-11-09, 03:21:00,VALID,0,VALID,99.8362,VALID,0.0509425,VALID,18.6125,VALID,310,VALID,0.888867,
1999-11-09, 03:22:00,VALID,0,VALID,99.8388,VALID,0.0679233,VALID,18.5993,VALID,328,VALID,0.69184,
1999-11-09, 03:23:00,VALID,0,VALID,99.8464,VALID,0.0509425,VALID,18.6192,VALID,315,VALID,0.64597,
1999-11-09, 03:24:00,VALID,0,VALID,99.826,VALID,0.0339617,VALID,18.6155,VALID,318,VALID,0.461965,
1999-11-09, 03:25:00,VALID,0,VALID,99.826,VALID,0.0169808,VALID,18.609,VALID,322,VALID,0.547492,
1999-11-09, 03:26:01,VALID,0,VALID,99.8171,VALID,0.0679233,VALID,18.6219,VALID,303,VALID,1.18511,
1999-11-09, 03:27:00,VALID,0,VALID,99.793,VALID,0.0849042,VALID,18.6416,VALID,54,VALID,0.666667,
1999-11-09, 03:28:01,VALID,0,VALID,99.7815,VALID,0.0849042,VALID,18.651,VALID,348,VALID,0.437305,
1999-11-09, 03:29:00,VALID,0,VALID,99.7663,VALID,0.0339617,VALID,18.6774,VALID,55,VALID,0.712305,
1999-11-09, 03:30:00,VALID,0,VALID,99.7192,VALID,0.0849042,VALID,18.6804,VALID,100,VALID,0.820724,
1999-11-09, 03:31:00,VALID,0,VALID,99.6976,VALID,0.0509425,VALID,18.69,VALID,193,VALID,0.735814,
1999-11-09, 03:32:00,VALID,0,VALID,99.6646,VALID,-0.0169808,VALID,18.688,VALID,298,VALID,1.52872,
1999-11-09, 03:33:00,VALID,0,VALID,99.6722,VALID,-0.0849042,VALID,18.7076,VALID,110,VALID,1.24277,
1999-11-09, 03:34:00,VALID,0,VALID,99.6378,VALID,-0.0509425,VALID,18.7012,VALID,193,VALID,0.880409,
1999-11-09, 03:35:00,VALID,0,VALID,99.6353,VALID,-0.0849042,VALID,18.7014,VALID,312,VALID,0.710115,
1999-11-09, 03:36:00,VALID,0,VALID,99.6404,VALID,-0.0679233,VALID,18.7176,VALID,277,VALID,0.45293,
1999-11-09, 03:37:00,VALID,0,VALID,99.6302,VALID,-0.0339617,VALID,18.7208,VALID,12,VALID,0.810981,
1999-11-09, 03:38:00,VALID,0,VALID,99.662,VALID,-0.0339617,VALID,18.7236,VALID,176,VALID,0.648438,
1999-11-09, 03:39:01,VALID,0,VALID,99.6289,VALID,-0.0169808,VALID,18.727,VALID,17,VALID,0.728002,
1999-11-09, 03:40:00,VALID,0,VALID,99.6175,VALID,-0.0339617,VALID,18.7076,VALID,109,VALID,0.51028,
1999-11-09, 03:41:00,VALID,0,VALID,99.6468,VALID,0,VALID,18.7178,VALID,95,VALID,1.0076,
1999-11-09, 03:42:00,VALID,0,VALID,99.6824,VALID,-0.0509425,VALID,18.7072,VALID,140,VALID,0.797309,
1999-11-09, 03:43:00,VALID,0,VALID,99.6963,VALID,-0.0169808,VALID,18.7305,VALID,337,VALID,1.21758,
1999-11-09, 03:44:00,VALID,0,VALID,99.6951,VALID,-0.0509425,VALID,18.7305,VALID,338,VALID,1.04609,
1999-11-09, 03:45:00,VALID,0,VALID,99.7091,VALID,-0.0849042,VALID,18.7203,VALID,255,VALID,1.28968,
1999-11-09, 03:46:00,VALID,0,VALID,99.7129,VALID,-0.0679233,VALID,18.7208,VALID,310,VALID,0.861431,
1999-11-09, 03:47:00,VALID,0,VALID,99.7358,VALID,-0.0679233,VALID,18.7109,VALID,356,VALID,0.813556,
1999-11-09, 03:48:00,VALID,0,VALID,99.7523,VALID,-0.0509425,VALID,18.721,VALID,7,VALID,2.0959,
1999-11-09, 03:49:00,VALID,0,VALID,99.7637,VALID,-0.0679233,VALID,18.7335,VALID,86,VALID,1.70974,
1999-11-09, 03:50:00,VALID,0,VALID,99.7726,VALID,-0.0509425,VALID,18.74,VALID,61,VALID,1.12788,
1999-11-09, 03:51:00,VALID,0,VALID,99.7396,VALID,-0.0169808,VALID,18.7429,VALID,211,VALID,1.15996,
1999-11-09, 03:52:00,VALID,0,VALID,99.7472,VALID,-0.0169808,VALID,18.7432,VALID,211,VALID,2.06793,
1999-11-09, 03:53:00,VALID,0,VALID,99.7332,VALID,-0.0509425,VALID,18.7332,VALID,9,VALID,1.32977,
1999-11-09, 03:54:00,VALID,0,VALID,99.7561,VALID,-0.0849042,VALID,18.7534,VALID,75,VALID,1.34827,
1999-11-09, 03:55:00,VALID,0,VALID,99.7612,VALID,-0.0339617,VALID,18.7464,VALID,345,VALID,0.597039,
1999-11-09, 03:56:00,VALID,0,VALID,99.765,VALID,-0.0169808,VALID,18.7462,VALID,357,VALID,0.968099,
1999-11-09, 03:57:00,VALID,0,VALID,99.7841,VALID,-0.0169808,VALID,18.7395,VALID,46,VALID,2.00499,
1999-11-09, 03:58:00,VALID,0,VALID,99.7777,VALID,-0.0169808,VALID,18.7496,VALID,267,VALID,1.2,
1999-11-09, 03:59:00,VALID,0,VALID,99.8108,VALID,-0.0169808,VALID,18.7524,VALID,97,VALID,0.77793,
1999-11-09, 04:00:00,VALID,0,VALID,99.8273,VALID,-0.0339617,VALID,18.7656,VALID,35,VALID,1.15892,
1999-11-09, 04:01:00,VALID,0,VALID,99.8413,VALID,-0.0339617,VALID,18.7623,VALID,157,VALID,1.16365,
1999-11-09, 04:02:00,VALID,0.2,VALID,99.8413,VALID,-0.0339617,VALID,18.7626,VALID,114,VALID,1.73775,
1999-11-09, 04:03:00,VALID,0,VALID,99.8756,VALID,-0.0339617,VALID,18.7688,VALID,100,VALID,2.31348,